Probability
0 0 0 0 0 0 0 0 0 0 0 0 0 0 0 0 0 0 0 0 0 0 0 0 0 0 0 0 0 0 0 0 0 0 0 0 0 0 0 0 0 0 0 0
0 0 0 0 0 0 0 0 0 0 0 0 0 0 0 0 0 0 0 0 0 0 0 0 0 0 0 0 0 0 0 0 0 0 0 0 0 0 0 0 0 0 0 0
0 0 0 0 0 0 0 0 0 0 0 0 0 0 0 0 0 0 0 0 0 0 0 0 0 0 0 0 0 0 0 0 0 0 0 0 0 0 0 0 0 0 0 0
0 0 0 0 0 0 0 0 0 0 0 0 0 0 0 0 0 0 0 0 0 0 0 0 0 0 0 0 0 0 0 0 0 0 0 0 0 0 0 0 0 0 0 0
0 0 0 0 0 0 0 0 0 0 0 0 0 0 0 0 0 0 0 0 0 0 0 0 0 0 0 0 0 0 0 0 0 0 0 0 0 0 0 0 0 0 0 0
0 0 0 0 0 0 0 0 0 0 0 0 0 0 0 0 0 0 0 0 0 0 0 0 0 0 0 0 0 0 0 0 0 0 0 0 0 0 0 0 0 0 0 0
0 0 0 0 0 0 0 0 0 0 0 0 0 0 0 0 0 0 0 0 0 0 0 0 0 0 0 0 0 0 0 0 0 0 0 0 0 0 0 0 0 0 0 0
0 0 0 0 0 0 0 0 0 0 0 0 0 0 0 0 0 0 0 0 0 0 0 0 0 0 0 0 0 0 0 0 0 0 0 0 0 0 0 0 0 0 0 0
0 0 0 0 0 0 0 0 0 0 0 0 0 0 0 0 0 0 0 0 0 0 0 0 0 0 0 0 0 0 0 0 0 0 0 0 0 0 0 0 0 0 0 0
0 0 0 0 0 0 0 0 0 0 0 0 0 0 0 0 0 0 0 0 0 0 0 0 0 0 0 0 0 0 0 0 0 0 0 0 0 0 0 0 0 0 0 0
0 0 0 0 0 0 0 0 0 0 0 0 0 0 0 0 0 0 0 0 0 0 0 0 0 0 0 0 0 0 0 0 0 0 0 0 0 0 0 0 0 0 0 0
0 0 0 0 0 0 0 0 0 0 0 0 0 0 0 0 0 0 0 0 0 0 0 0 0 0 0 0 0 0 0 0 0 0 0 0 0 0 0 0 0 0 0 0
0 0 0 0 0 0 0 0 0 0 0 0 0 0 0 0 0 0 0 0 0 0 0 0 0 0 0 0 0 0 0 0 0 0 0 0 0 0 0 0 0 0 0 0
0 0 0 0 0 0 0 0 0 0 0 0 0 0 0 0 0 0 0 0 0 0 0 0 0 0 0 0 0 0 0 0 0 0 0 0 0 0 0 0 0 0 0 0
0 0 0 0 0 0 0 0 0 0 0 0 0 0 0 0 0 0 0 0 0 0 0 0 0 0 0 0 0 0 0 0 0 0 0 0 0 0 0 0 0 0 0 0
0 0 0 0 0 0 0 0 0 0 0 0 0 0 0 0 0 0 0 0 0 0 0 0 0 0 0 0 0 0 0 0 0 0 0 0 0 0 0 0 0 0 0 0
0 0 0 0 0 0 0 0 0 0 0 0 0 0 0 0 0 0 0 0 0 0 0 0 0 0 0 0 0 0 0 0 0 0 0 0 0 0 0 0 0 0 0 0
0 0 0 0 0 0 0 0 0 0 0 0 0 0 0 0 0 0 0 0 0 0 0 0 0 0 0 0 0 0 0 0 0 0 0 0 0 0 0 0 0 0 0 0
0 0 0 0 0 0 0 0 0 0 0 0 0 0 0 0 0 0 0 0 0 0 0 0 0 0 0 0 0 0 0 0 0 0 0 0 0 0 0 0 0 0 0 0
0 0 0 0 0 0 0 0 0 0 0 0 0 0 0 0 0 0 0 0 0 0 0 0 0 0 0 0 0 0 0 0 0 0 0 0 0 0 0 0 0 0 0 0
0 0 0 0 0 0 0 0 0 0 0 0 0 0 0 0 0 0 0 0 0 0 0 0 0 0 0 0 0 0 0 0 0 0 0 0 0 0 0 0 0 0 0 0
0 0 0 0 0 0 0 0 0 0 0 0 0 0 0 0 0 0 0 0 0 0 0 0 0 0 0 0 0 0 0 0 0 0 0 0 0 0 0 0 0 0 0 0
0 0 0 0 0 0 0 0 0 0 0 0 0 0 0 0 0 0 0 0 0 0 0 0 0 0 0 0 0 0 0 0 0 0 0 0 0 0 0 0 0 0 0 0
0 0 0 0 0 0 0 0 0 0 0 0 0 0 0 0 0 0 0 0 0 0 0 0 0 0 0 0 0 0 0 0 0 0 0 0 0 0 0 0 0 0 0 0
0 0 0 0 0 0 0 0 0 0 0 0 0 0 0 0 0 0 0 0 0 0 0 0 0 0 0 0 0 0 0 0 0 0 0 0 0 0 0 0 0 0 0 0
0 0 0 0 0 0 0 0 0 0 0 0 0 0 0 0 0 0 0 0 0 0 0 0 0 0 0 0 0 0 0 0 0 0 0 0 0 0 0 0 0 0 0 0
0 0 0 0 0 0 0 0 0 0 0 0 0 0 0 0 0 0 0 0 0 0 0 0 0 0 0 0 0 0 0 0 0 0 0 0 0 0 0 0 0 0 0 0
Wind_Speed
5 4 4 4 6 8 8 7 7 7 7 11 7 4 3 3 5 6 8 9 11 11 10 9 9 8 8 8 8 8 8 7 7 6 5 5 5 5 4 4 4 4 4 3
2 2 4 4 6 9 9 7 7 6 8 8 4 2 2 4 6 8 9 10 11 10 10 11 11 10 9 9 9 8 9 8 6 6 6 6 5 5 5 4 4 4 4 4
2 1 1 5 8 9 6 6 7 9 10 4 2 2 3 5 7 8 9 9 10 11 11 12 11 11 11 10 9 9 8 7 7 7 7 6 6 6 5 5 4 4 4 4
2 1 3 7 3 6 6 6 8 7 6 5 5 3 3 3 6 7 8 8 9 9 9 8 8 8 8 8 9 9 8 8 7 8 7 6 6 6 5 4 4 4 4 4
3 2 5 7 2 4 4 5 6 7 5 3 1 1 2 2 4 6 7 7 8 8 8 8 9 9 9 8 8 9 9 9 9 9 8 8 7 6 5 4 4 3 3 4
4 3 4 7 3 2 3 4 4 5 5 3 4 2 4 3 3 3 4 5 6 6 6 8 8 9 10 9 9 10 10 9 9 9 9 9 8 6 4 4 4 4 3 3
4 3 7 7 3 3 4 6 3 4 5 5 5 5 3 1 2 2 3 4 6 7 7 8 8 10 10 9 11 10 8 8 8 8 9 8 7 5 5 5 5 4 3 2
5 4 7 4 3 6 6 2 1 2 3 5 4 1 1 1 1 2 3 4 5 6 5 5 8 10 9 10 8 7 7 8 8 8 7 6 7 6 5 6 6 4 3 2
8 7 5 2 4 4 2 1 1 1 2 4 3 2 1 2 2 2 3 4 4 5 5 4 6 8 9 7 6 8 7 7 7 7 6 6 7 7 6 5 5 4 4 4
3 5 3 3 2 2 1 1 1 2 2 4 4 3 2 2 2 2 2 3 3 5 5 4 4 5 6 5 7 8 8 7 6 7 6 6 5 6 6 7 6 5 5 5
2 3 1 2 1 1 1 3 4 4 3 4 5 3 3 3 2 2 2 2 3 4 4 4 4 4 4 5 7 7 6 6 6 6 7 6 5 5 7 7 8 8 7 6
6 6 5 4 1 1 3 3 3 4 5 4 4 3 3 3 2 2 3 3 3 3 3 3 3 3 3 5 7 7 6 5 5 5 5 5 5 3 3 4 7 9 8 7
3 2 3 2 1 2 3 3 3 4 4 4 3 3 4 3 2 3 3 3 3 3 2 3 3 3 3 5 6 7 6 6 5 5 5 5 5 5 3 1 3 6 8 9
2 3 2 1 2 2 3 4 5 5 4 4 3 3 4 4 4 4 2 1 2 3 3 3 3 2 2 4 5 5 5 6 5 5 5 5 6 5 5 5 3 2 4 7
1 2 4 3 4 3 4 5 6 5 4 4 4 4 4 4 3 2 2 2 4 4 3 3 2 1 2 4 5 5 4 4 4 4 4 4 4 4 4 4 3 2 1 2
2 4 5 5 5 3 4 5 5 3 2 3 4 4 3 3 3 3 3 3 4 3 2 2 1 1 2 3 4 3 3 5 5 4 4 4 3 4 4 4 3 3 3 3
5 4 4 4 3 3 3 3 3 3 2 3 3 3 4 5 5 4 3 2 2 2 1 1 1 1 2 3 4 3 3 3 5 4 3 4 4 4 4 4 4 4 4 4
3 4 5 6 5 4 3 3 3 3 3 2 3 4 4 4 3 2 2 2 3 3 2 1 1 2 2 3 3 3 3 3 3 3 3 3 3 3 4 4 4 4 3 3
3 4 4 4 4 4 4 3 2 2 3 3 4 4 3 3 2 2 2 3 3 2 3 2 2 2 2 2 3 3 3 3 3 2 2 3 3 2 3 3 3 3 3 2
4 4 5 5 4 4 4 3 3 3 3 4 4 4 3 2 2 2 3 3 1 1 2 1 1 1 1 2 3 3 3 3 3 2 2 2 3 3 2 2 2 2 2 3
5 6 6 6 5 4 4 3 4 3 3 3 4 3 2 1 2 2 3 2 3 2 1 2 1 1 1 2 3 2 2 2 2 2 2 2 2 2 2 2 2 2 2 2
5 6 6 6 6 4 3 3 4 4 4 4 3 3 3 3 2 2 2 0 2 2 1 1 1 2 3 3 2 2 2 2 2 2 2 2 2 2 2 2 2 2 2 2
4 5 5 5 5 4 3 3 3 3 3 3 3 3 3 1 1 2 1 2 1 2 2 1 2 4 5 3 2 2 2 2 1 1 1 1 1 1 2 2 2 2 2 2
5 5 4 4 5 6 4 3 3 3 3 3 2 2 2 2 1 1 0 1 3 3 2 2 4 5 5 3 2 2 2 2 1 1 1 1 1 0 0 1 1 1 1 2
5 5 5 5 5 3 3 3 4 4 4 3 3 3 2 1 1 0 1 2 4 4 3 4 6 6 4 2 2 2 2 1 1 1 1 1 1 0 0 0 0 1 1 1
4 3 3 3 3 2 2 2 3 2 2 2 2 2 2 2 2 2 2 3 4 4 3 2 3 3 2 2 2 2 1 1 1 1 1 1 1 0 0 0 0 0 1 1
4 3 3 3 2 2 2 2 3 2 2 2 1 1 2 2 2 2 3 2 2 2 2 2 2 2 2 2 2 2 1 1 1 0 0 0 0 1 1 1 1 1 1 1
Wind_Direction
230 226 189 205 203 187 193 200 206 234 244 266 271 255 237 191 173 166 169 170 175 179 179 175 175 177 177 175 169 164 162 169 179 173 161 154 151 151 146 145 148 144 135 127
273 239 212 239 237 213 212 215 226 249 266 260 264 212 189 180 172 178 182 182 182 181 178 181 182 179 177 176 173 165 170 178 171 160 159 161 159 153 147 146 142 140 146 146
261 307 78 271 234 207 205 206 196 223 242 260 288 228 209 197 187 188 188 186 184 185 186 187 187 180 180 177 166 168 174 172 167 165 166 168 162 154 159 159 152 151 156 155
154 89 241 251 245 196 207 227 212 227 247 240 233 228 208 196 193 196 190 186 188 187 186 182 175 173 167 159 163 169 173 172 170 168 167 161 159 166 166 158 161 163 166 168
136 194 280 292 264 181 189 253 224 223 242 241 212 62 324 246 204 201 194 188 186 184 177 168 168 164 155 159 164 171 179 180 178 172 168 165 171 175 169 161 166 168 165 168
132 159 237 257 269 195 121 288 248 205 212 185 125 106 272 263 204 190 177 172 164 156 149 160 166 157 158 166 172 186 190 184 176 173 172 176 179 172 162 163 170 161 160 173
156 200 256 259 271 130 155 243 249 191 190 169 172 196 231 200 174 167 160 153 147 148 158 168 161 159 167 174 190 194 178 167 169 175 178 175 168 162 155 153 150 156 163 170
153 185 249 252 146 177 215 241 192 181 176 165 174 174 152 142 126 115 116 121 140 149 157 155 159 163 173 191 194 166 159 165 171 174 175 167 159 158 153 151 153 163 164 178
181 205 234 229 216 243 204 190 214 151 153 147 134 122 105 104 104 115 127 133 143 149 146 149 166 171 182 193 162 154 158 168 170 166 166 160 162 161 155 159 163 174 176 193
203 255 257 263 261 279 233 178 139 115 119 119 112 100 83 94 97 96 98 124 132 134 143 161 178 182 185 165 154 156 164 168 165 164 163 162 164 166 168 174 176 181 189 199
213 261 299 305 260 256 56 82 83 75 84 107 108 92 84 92 97 111 105 114 133 146 160 175 173 175 163 150 150 155 161 163 166 167 167 169 174 183 185 192 187 184 195 191
205 209 182 219 236 167 118 102 110 101 78 69 92 100 85 85 94 107 111 115 117 127 141 156 157 158 151 152 154 154 156 164 168 167 167 168 168 170 208 198 201 202 196 187
211 178 165 170 113 105 115 106 96 93 100 90 69 90 95 86 76 84 90 101 124 141 141 139 140 145 153 155 157 160 166 170 168 167 168 170 172 177 186 216 209 210 209 205
183 123 111 142 138 102 104 101 90 77 68 76 75 76 86 84 79 78 78 99 115 111 111 124 132 154 166 159 159 163 163 167 168 174 174 175 180 183 181 178 191 230 230 218
176 147 151 127 98 86 91 95 86 73 64 56 60 69 78 86 85 81 73 85 90 84 84 100 115 155 156 156 159 162 160 166 168 168 169 171 171 170 174 180 187 195 196 225
104 93 107 111 109 101 93 97 100 93 81 75 66 61 65 82 82 66 61 82 97 100 106 115 137 213 158 154 153 154 163 163 159 160 158 158 161 167 175 181 187 192 202 205
127 132 128 125 126 120 113 123 135 136 111 96 90 86 84 80 71 60 51 61 99 111 115 142 186 133 140 154 156 157 150 156 151 151 166 172 174 181 184 185 195 205 216 204
170 171 164 157 153 140 117 102 107 112 113 113 102 92 88 89 86 63 41 60 66 49 27 5 56 108 128 144 149 143 143 147 155 165 171 174 178 181 181 188 199 207 220 211
128 137 133 131 136 134 126 112 104 105 108 108 103 95 88 85 85 71 65 71 68 34 334 350 59 93 113 139 132 132 137 141 142 148 157 163 163 169 178 187 198 205 203 198
106 108 108 104 102 111 111 101 95 89 91 107 104 93 77 60 68 75 75 68 7 272 288 11 90 106 122 132 119 128 139 148 151 152 149 160 171 178 183 189 195 202 204 207
115 111 108 104 96 91 98 105 104 95 80 96 108 112 106 71 66 83 86 50 328 334 17 53 75 100 116 112 110 118 132 142 150 158 164 174 180 184 190 194 198 205 209 214
115 114 110 108 104 90 77 86 101 100 88 86 93 103 100 81 66 60 57 218 302 19 44 45 72 90 98 99 108 111 118 129 139 147 160 173 181 190 197 200 206 212 211 211
110 112 110 108 109 103 79 74 81 93 96 99 108 113 113 105 99 104 6 316 336 50 56 52 83 91 94 95 103 105 108 111 113 122 138 157 175 192 199 203 210 211 215 219
110 105 103 102 102 96 82 57 59 70 78 75 80 104 118 102 55 22 202 12 44 59 58 59 72 81 85 88 93 94 94 94 94 98 98 94 98 127 186 210 211 215 220 223
110 107 105 101 97 97 101 87 75 70 68 62 51 46 53 103 128 75 45 50 56 58 50 52 64 69 74 82 86 88 90 97 101 99 102 103 92 79 62 33 234 226 226 227
109 108 108 112 120 124 118 104 95 85 85 74 43 34 42 53 75 74 66 54 56 56 50 40 48 56 65 72 75 78 89 89 78 80 108 114 101 81 44 21 335 280 260 253
95 94 91 82 73 87 102 109 113 108 109 113 94 41 52 60 67 69 68 62 57 53 47 42 45 54 60 67 68 62 61 66 77 92 136 192 207 219 230 238 256 275 280 276